Time,TemperatureF,DewpointF,PressureIn,WindDirection,WindDirectionDegrees,WindSpeedMPH,WindSpeedGustMPH,Humidity,HourlyPrecipIn,Conditions,Clouds,dailyrainin,SoftwareType,DateUTC
2013-04-08 00:00:00,53.2,43.3,29.93,South,183,0.0,3.0,69,0.00,,SCT085,0.00,VWS V14.01,2013-04-08 04:00:00,
2013-04-08 00:01:00,53.1,43.6,29.93,South,183,2.0,2.0,70,0.00,,SCT085,0.00,VWS V14.01,2013-04-08 04:01:00,
2013-04-08 00:06:00,52.7,43.2,29.93,South,183,0.0,2.0,70,0.00,,OVC095,0.00,VWS V14.01,2013-04-08 04:06:00,
2013-04-08 00:11:00,52.3,43.2,29.93,South,183,0.0,2.0,71,0.00,,OVC095,0.00,VWS V14.01,2013-04-08 04:11:00,
2013-04-08 00:16:00,51.8,43.1,29.93,South,182,0.0,2.0,72,0.00,,OVC095,0.00,VWS V14.01,2013-04-08 04:16:00,
2013-04-08 00:21:00,51.3,42.6,29.93,South,182,0.0,2.0,72,0.00,,OVC095,0.00,VWS V14.01,2013-04-08 04:21:00,
2013-04-08 00:26:00,50.8,42.5,29.94,South,175,0.0,2.0,73,0.00,,OVC095,0.00,VWS V14.01,2013-04-08 04:26:00,
2013-04-08 00:31:00,50.5,42.2,29.94,South,175,0.0,0.0,73,0.00,,OVC095,0.00,VWS V14.01,2013-04-08 04:31:00,
2013-04-08 00:36:00,50.1,42.2,29.94,South,176,0.0,0.0,74,0.00,,OVC095,0.00,VWS V14.01,2013-04-08 04:36:00,
2013-04-08 00:41:00,49.8,41.9,29.94,South,176,1.0,2.0,74,0.00,,OVC095,0.00,VWS V14.01,2013-04-08 04:41:00,
2013-04-08 00:46:00,49.5,41.6,29.95,South,172,0.0,2.0,74,0.00,,OVC095,0.00,VWS V14.01,2013-04-08 04:46:00,
2013-04-08 00:51:00,49.2,41.6,29.95,South,171,0.0,2.0,75,0.00,,OVC095,0.00,VWS V14.01,2013-04-08 04:51:00,
2013-04-08 00:57:00,48.8,41.2,29.95,South,174,0.0,2.0,75,0.00,,OVC095,0.00,VWS V14.01,2013-04-08 04:57:00,
2013-04-08 01:02:00,48.5,41.0,29.95,South,177,4.0,4.0,75,0.00,,CLR,0.07,VWS V14.01,2013-04-08 05:02:00,
2013-04-08 01:07:00,48.2,41.0,29.95,South,176,0.0,4.0,76,0.00,,CLR,0.00,VWS V14.01,2013-04-08 05:07:00,
2013-04-08 01:12:00,47.8,41.0,29.95,South,175,0.0,4.0,77,0.00,,CLR,0.00,VWS V14.01,2013-04-08 05:12:00,
2013-04-08 01:17:00,47.6,41.1,29.95,South,174,0.0,4.0,78,0.00,,CLR,0.00,VWS V14.01,2013-04-08 05:17:00,
2013-04-08 01:22:00,47.3,40.8,29.96,South,172,0.0,4.0,78,0.00,,CLR,0.00,VWS V14.01,2013-04-08 05:22:00,
2013-04-08 01:27:00,47.0,40.5,29.95,South,171,0.0,4.0,78,0.00,,CLR,0.00,VWS V14.01,2013-04-08 05:27:00,
2013-04-08 01:32:00,46.7,40.2,29.96,South,170,0.0,0.0,78,0.00,,CLR,0.00,VWS V14.01,2013-04-08 05:32:00,
2013-04-08 01:37:00,46.3,40.2,29.96,South,172,0.0,0.0,79,0.00,,CLR,0.00,VWS V14.01,2013-04-08 05:37:00,
2013-04-08 01:42:00,46.0,40.2,29.96,South,174,0.0,0.0,80,0.00,,CLR,0.00,VWS V14.01,2013-04-08 05:42:00,
2013-04-08 01:47:00,45.8,40.3,29.96,South,176,0.0,0.0,81,0.00,,CLR,0.00,VWS V14.01,2013-04-08 05:47:00,
2013-04-08 01:52:00,45.6,40.1,29.96,South,176,0.0,0.0,81,0.00,,CLR,0.00,VWS V14.01,2013-04-08 05:52:00,
2013-04-08 01:57:00,45.3,39.8,29.96,South,177,0.0,0.0,81,0.00,,CLR,0.00,VWS V14.01,2013-04-08 05:57:00,
2013-04-08 02:02:00,45.2,39.7,29.96,South,178,0.0,0.0,81,0.00,,CLR,0.00,VWS V14.01,2013-04-08 06:02:00,
2013-04-08 02:07:00,44.9,39.8,29.96,South,178,0.0,0.0,82,0.00,,CLR,0.00,VWS V14.01,2013-04-08 06:07:00,
2013-04-08 02:12:00,44.7,39.9,29.95,South,177,0.0,0.0,83,0.00,,CLR,0.00,VWS V14.01,2013-04-08 06:12:00,
2013-04-08 02:17:00,44.7,39.9,29.96,South,177,0.0,0.0,83,0.00,,CLR,0.00,VWS V14.01,2013-04-08 06:17:00,
2013-04-08 02:22:00,44.5,39.7,29.96,South,177,0.0,0.0,83,0.00,,CLR,0.00,VWS V14.01,2013-04-08 06:22:00,
2013-04-08 02:27:00,44.3,39.5,29.96,South,175,0.0,0.0,83,0.00,,CLR,0.00,VWS V14.01,2013-04-08 06:27:00,
2013-04-08 02:32:00,44.0,39.2,29.96,SSE,147,0.0,0.0,83,0.00,,CLR,0.00,VWS V14.01,2013-04-08 06:32:00,
2013-04-08 02:37:00,43.8,39.0,29.96,SSE,152,0.0,0.0,83,0.00,,CLR,0.00,VWS V14.01,2013-04-08 06:37:00,
2013-04-08 02:42:00,43.5,38.7,29.97,SSE,147,0.0,0.0,83,0.00,,CLR,0.00,VWS V14.01,2013-04-08 06:42:00,
2013-04-08 02:47:00,43.3,38.8,29.97,SSE,148,0.0,0.0,84,0.00,,CLR,0.00,VWS V14.01,2013-04-08 06:47:00,
2013-04-08 02:52:00,43.2,39.0,29.98,SSE,148,0.0,0.0,85,0.00,,CLR,0.00,VWS V14.01,2013-04-08 06:52:00,
2013-04-08 02:57:00,43.0,38.8,29.98,SSE,147,0.0,0.0,85,0.00,,CLR,0.00,VWS V14.01,2013-04-08 06:57:00,
2013-04-08 03:02:00,42.8,38.6,29.98,SE,146,0.0,0.0,85,0.00,,CLR,0.00,VWS V14.01,2013-04-08 07:02:00,
2013-04-08 03:07:00,42.6,38.7,29.98,SSE,148,0.0,0.0,86,0.00,,CLR,0.00,VWS V14.01,2013-04-08 07:07:00,
2013-04-08 03:12:00,42.5,38.6,29.98,SSE,149,0.0,0.0,86,0.00,,CLR,0.00,VWS V14.01,2013-04-08 07:12:00,
2013-04-08 03:17:00,42.5,38.6,29.98,SSE,149,0.0,0.0,86,0.00,,CLR,0.00,VWS V14.01,2013-04-08 07:17:00,
2013-04-08 03:22:00,42.4,38.8,29.98,SSE,148,0.0,0.0,87,0.00,,CLR,0.00,VWS V14.01,2013-04-08 07:22:00,
2013-04-08 03:27:00,42.3,38.4,29.98,SSE,148,0.0,1.0,86,0.00,,CLR,0.00,VWS V14.01,2013-04-08 07:27:00,
2013-04-08 03:32:00,42.2,38.6,29.98,SSE,148,0.0,0.0,87,0.00,,CLR,0.00,VWS V14.01,2013-04-08 07:32:00,
2013-04-08 03:37:00,42.1,38.5,29.99,SSE,151,0.0,0.0,87,0.00,,CLR,0.00,VWS V14.01,2013-04-08 07:37:00,
2013-04-08 03:42:00,41.9,38.0,29.99,SSE,150,0.0,0.0,86,0.00,,CLR,0.00,VWS V14.01,2013-04-08 07:42:00,
2013-04-08 03:47:00,41.7,38.1,29.99,SSE,150,0.0,0.0,87,0.00,,CLR,0.00,VWS V14.01,2013-04-08 07:47:00,
2013-04-08 03:52:00,41.7,38.1,29.99,SSE,150,0.0,0.0,87,0.00,,CLR,0.00,VWS V14.01,2013-04-08 07:52:00,
2013-04-08 03:57:00,41.5,37.9,29.99,SSE,149,0.0,0.0,87,0.00,,CLR,0.00,VWS V14.01,2013-04-08 07:57:00,
2013-04-08 04:02:00,41.3,37.7,29.99,South,180,0.0,0.0,87,0.00,,CLR,0.00,VWS V14.01,2013-04-08 08:02:00,
2013-04-08 04:07:00,41.2,37.6,29.99,South,181,0.0,0.0,87,0.00,,CLR,0.00,VWS V14.01,2013-04-08 08:07:00,
2013-04-08 04:12:00,41.0,37.4,29.99,South,181,0.0,0.0,87,0.00,,CLR,0.00,VWS V14.01,2013-04-08 08:12:00,
2013-04-08 04:17:00,40.8,37.5,29.99,South,182,0.0,0.0,88,0.00,,CLR,0.00,VWS V14.01,2013-04-08 08:17:00,
2013-04-08 04:22:00,40.7,37.4,30.00,South,182,0.0,0.0,88,0.00,,CLR,0.00,VWS V14.01,2013-04-08 08:22:00,
2013-04-08 04:27:00,40.7,37.7,30.00,South,182,0.0,0.0,89,0.00,,CLR,0.00,VWS V14.01,2013-04-08 08:27:00,
2013-04-08 04:32:00,40.5,37.5,29.99,South,182,0.0,0.0,89,0.00,,CLR,0.00,VWS V14.01,2013-04-08 08:32:00,
2013-04-08 04:37:00,40.4,37.4,30.00,South,182,0.0,0.0,89,0.00,,CLR,0.00,VWS V14.01,2013-04-08 08:37:00,
2013-04-08 04:42:00,40.3,37.3,30.00,South,182,0.0,1.0,89,0.00,,CLR,0.00,VWS V14.01,2013-04-08 08:42:00,
2013-04-08 04:47:00,40.2,37.2,30.00,South,182,0.0,1.0,89,0.00,,CLR,0.00,VWS V14.01,2013-04-08 08:47:00,
2013-04-08 04:52:00,40.1,37.1,30.00,South,182,0.0,1.0,89,0.00,,CLR,0.00,VWS V14.01,2013-04-08 08:52:00,
2013-04-08 04:57:00,39.9,36.9,30.01,South,182,0.0,1.0,89,0.00,,CLR,0.00,VWS V14.01,2013-04-08 08:57:00,
2013-04-08 05:02:00,39.7,37.0,30.00,South,181,0.0,0.0,90,0.00,,CLR,0.00,VWS V14.01,2013-04-08 09:02:00,
2013-04-08 05:07:00,39.5,36.5,30.01,South,181,0.0,0.0,89,0.00,,CLR,0.00,VWS V14.01,2013-04-08 09:07:00,
2013-04-08 05:12:00,39.2,36.2,30.01,South,180,0.0,0.0,89,0.00,,CLR,0.00,VWS V14.01,2013-04-08 09:12:00,
2013-04-08 05:17:00,39.0,36.3,30.01,South,180,0.0,0.0,90,0.00,,CLR,0.00,VWS V14.01,2013-04-08 09:17:00,
2013-04-08 05:22:00,38.8,36.1,30.01,South,180,0.0,0.0,90,0.00,,CLR,0.00,VWS V14.01,2013-04-08 09:22:00,
2013-04-08 05:27:00,38.7,36.0,30.01,South,179,0.0,0.0,90,0.00,,CLR,0.00,VWS V14.01,2013-04-08 09:27:00,
2013-04-08 05:32:00,38.5,35.8,30.01,South,176,0.0,0.0,90,0.00,,CLR,0.00,VWS V14.01,2013-04-08 09:32:00,
2013-04-08 05:37:00,38.2,35.5,30.01,SSE,165,0.0,0.0,90,0.00,,CLR,0.00,VWS V14.01,2013-04-08 09:37:00,
2013-04-08 05:42:00,38.0,35.3,30.01,SSE,161,0.0,0.0,90,0.00,,CLR,0.00,VWS V14.01,2013-04-08 09:42:00,
2013-04-08 05:47:00,37.9,35.2,30.01,SSE,163,0.0,0.0,90,0.00,,CLR,0.00,VWS V14.01,2013-04-08 09:47:00,
2013-04-08 05:52:00,37.7,35.3,30.01,SSE,163,0.0,0.0,91,0.00,,CLR,0.00,VWS V14.01,2013-04-08 09:52:00,
2013-04-08 05:57:00,37.6,34.9,30.02,SSE,161,0.0,0.0,90,0.00,,CLR,0.00,VWS V14.01,2013-04-08 09:57:00,
2013-04-08 06:02:00,37.5,35.1,30.02,SSE,162,0.0,0.0,91,0.00,,CLR,0.00,VWS V14.01,2013-04-08 10:02:00,
2013-04-08 06:07:00,37.3,34.9,30.02,SSE,150,0.0,0.0,91,0.00,,CLR,0.00,VWS V14.01,2013-04-08 10:07:00,
2013-04-08 06:12:00,37.2,34.8,30.02,SSE,148,0.0,0.0,91,0.00,,CLR,0.00,VWS V14.01,2013-04-08 10:12:00,
2013-04-08 06:17:00,37.0,34.6,30.02,SSE,156,0.0,0.0,91,0.00,,CLR,0.00,VWS V14.01,2013-04-08 10:17:00,
2013-04-08 06:22:00,36.8,34.4,30.02,SE,140,0.0,0.0,91,0.00,,CLR,0.00,VWS V14.01,2013-04-08 10:22:00,
2013-04-08 06:28:00,36.7,34.3,30.02,SE,143,0.0,0.0,91,0.00,,CLR,0.00,VWS V14.01,2013-04-08 10:28:00,
2013-04-08 06:33:00,36.6,34.5,30.02,SE,143,0.0,0.0,92,0.00,,CLR,0.00,VWS V14.01,2013-04-08 10:33:00,
2013-04-08 06:38:00,36.6,34.5,30.03,SE,143,0.0,0.0,92,0.00,,CLR,0.00,VWS V14.01,2013-04-08 10:38:00,
2013-04-08 06:43:00,36.5,34.4,30.03,SSE,147,0.0,0.0,92,0.00,,CLR,0.00,VWS V14.01,2013-04-08 10:43:00,
2013-04-08 06:48:00,36.4,34.3,30.04,SE,143,0.0,0.0,92,0.00,,CLR,0.00,VWS V14.01,2013-04-08 10:48:00,
2013-04-08 06:53:00,36.4,34.3,30.04,SE,146,0.0,0.0,92,0.00,,CLR,0.00,VWS V14.01,2013-04-08 10:53:00,
2013-04-08 06:58:00,36.5,34.7,30.04,SE,146,0.0,1.0,93,0.00,,CLR,0.00,VWS V14.01,2013-04-08 10:58:00,
2013-04-08 07:03:00,36.7,34.9,30.05,SE,146,0.0,0.0,93,0.00,,CLR,0.00,VWS V14.01,2013-04-08 11:03:00,
2013-04-08 07:08:00,36.6,34.8,30.05,SSE,147,0.0,0.0,93,0.00,,CLR,0.00,VWS V14.01,2013-04-08 11:08:00,
2013-04-08 07:13:00,36.6,34.8,30.05,SSE,154,0.0,0.0,93,0.00,,CLR,0.00,VWS V14.01,2013-04-08 11:13:00,
2013-04-08 07:18:00,36.7,34.9,30.05,South,182,0.0,0.0,93,0.00,,CLR,0.00,VWS V14.01,2013-04-08 11:18:00,
2013-04-08 07:23:00,37.0,35.4,30.05,SSE,158,1.0,1.0,94,0.00,,CLR,0.00,VWS V14.01,2013-04-08 11:23:00,
2013-04-08 07:28:00,37.6,36.3,30.05,SSE,156,0.0,1.0,95,0.00,,CLR,0.00,VWS V14.01,2013-04-08 11:28:00,
2013-04-08 07:33:00,37.9,36.3,30.05,South,178,0.0,1.0,94,0.00,,CLR,0.00,VWS V14.01,2013-04-08 11:33:00,
2013-04-08 07:38:00,38.6,37.3,30.06,South,182,1.0,2.0,95,0.00,,CLR,0.00,VWS V14.01,2013-04-08 11:38:00,
2013-04-08 07:43:00,39.5,38.2,30.06,South,182,2.0,3.0,95,0.00,,CLR,0.00,VWS V14.01,2013-04-08 11:43:00,
2013-04-08 07:48:00,40.6,39.5,30.06,South,182,1.0,3.0,96,0.00,,CLR,0.00,VWS V14.01,2013-04-08 11:48:00,
2013-04-08 07:53:00,41.6,40.3,30.06,South,182,0.0,4.0,95,0.00,,CLR,0.00,VWS V14.01,2013-04-08 11:53:00,
2013-04-08 07:58:00,42.3,41.0,30.06,South,183,0.0,4.0,95,0.00,,CLR,0.00,VWS V14.01,2013-04-08 11:58:00,
2013-04-08 08:03:00,43.3,41.7,30.06,South,183,0.0,3.0,94,0.00,,CLR,0.00,VWS V14.01,2013-04-08 12:03:00,
2013-04-08 08:08:00,44.2,42.3,30.06,South,183,0.0,3.0,93,0.00,,CLR,0.00,VWS V14.01,2013-04-08 12:08:00,
2013-04-08 08:13:00,45.1,42.9,30.07,NE,50,0.0,3.0,92,0.00,,CLR,0.00,VWS V14.01,2013-04-08 12:13:00,
2013-04-08 08:18:00,46.0,43.5,30.07,SSE,163,0.0,4.0,91,0.00,,CLR,0.00,VWS V14.01,2013-04-08 12:18:00,
2013-04-08 08:23:00,47.0,43.9,30.07,ENE,69,2.0,5.0,89,0.00,,CLR,0.07,VWS V14.01,2013-04-08 12:23:00,
2013-04-08 08:28:00,47.8,43.8,30.08,East,98,3.0,5.0,86,0.00,,CLR,0.00,VWS V14.01,2013-04-08 12:28:00,
2013-04-08 08:33:00,48.7,44.1,30.08,East,85,3.0,5.0,84,0.00,,CLR,0.00,VWS V14.01,2013-04-08 12:33:00,
2013-04-08 08:38:00,49.4,43.5,30.08,East,81,4.0,7.0,80,0.00,,CLR,0.00,VWS V14.01,2013-04-08 12:38:00,
2013-04-08 08:43:00,50.0,43.4,30.08,ENE,57,2.0,7.0,78,0.00,,CLR,0.00,VWS V14.01,2013-04-08 12:43:00,
2013-04-08 08:48:00,50.4,43.1,30.08,East,82,3.0,9.0,76,0.00,,CLR,0.00,VWS V14.01,2013-04-08 12:48:00,
2013-04-08 08:53:00,50.8,43.2,30.08,ENE,60,4.0,9.0,75,0.00,,CLR,0.00,VWS V14.01,2013-04-08 12:53:00,
2013-04-08 08:58:00,51.2,43.6,30.08,SSE,147,1.0,9.0,75,0.00,,CLR,0.00,VWS V14.01,2013-04-08 12:58:00,
2013-04-08 09:03:00,51.7,43.7,30.08,NE,52,4.0,6.0,74,0.00,,CLR,0.00,VWS V14.01,2013-04-08 13:03:00,
2013-04-08 09:08:00,52.0,43.3,30.08,East,80,3.0,9.0,72,0.00,,CLR,0.00,VWS V14.01,2013-04-08 13:08:00,
2013-04-08 09:13:00,52.2,43.5,30.07,SSE,161,0.0,10.0,72,0.00,,CLR,0.00,VWS V14.01,2013-04-08 13:13:00,
2013-04-08 09:18:00,52.6,43.5,30.07,NE,56,3.0,10.0,71,0.00,,CLR,0.00,VWS V14.01,2013-04-08 13:18:00,
2013-04-08 09:23:00,52.8,43.3,30.08,ENE,63,4.0,10.0,70,0.00,,CLR,0.00,VWS V14.01,2013-04-08 13:23:00,
2013-04-08 09:28:00,52.9,43.4,30.08,ENE,64,6.0,10.0,70,0.00,,CLR,0.00,VWS V14.01,2013-04-08 13:28:00,
2013-04-08 09:33:00,53.1,43.6,30.08,ENE,61,4.0,9.0,70,0.00,,CLR,0.00,VWS V14.01,2013-04-08 13:33:00,
2013-04-08 09:38:00,53.3,43.4,30.07,NE,49,5.0,9.0,69,0.00,,CLR,0.00,VWS V14.01,2013-04-08 13:38:00,
2013-04-08 09:43:00,53.6,43.7,30.07,ESE,109,3.0,9.0,69,0.00,,CLR,0.00,VWS V14.01,2013-04-08 13:43:00,
2013-04-08 09:48:00,54.1,44.2,30.07,SSE,155,4.0,9.0,69,0.00,,CLR,0.00,VWS V14.01,2013-04-08 13:48:00,
2013-04-08 09:53:00,54.7,44.7,30.07,ESE,115,2.0,9.0,69,0.00,,CLR,0.00,VWS V14.01,2013-04-08 13:53:00,
2013-04-08 09:58:00,55.3,44.5,30.07,ESE,116,7.0,9.0,67,0.00,,CLR,0.00,VWS V14.01,2013-04-08 13:58:00,
2013-04-08 10:03:00,56.0,44.8,30.07,ESE,117,1.0,6.0,66,0.00,,CLR,0.00,VWS V14.01,2013-04-08 14:03:00,
2013-04-08 10:08:00,56.7,45.1,30.07,East,81,0.0,6.0,65,0.00,,CLR,0.00,VWS V14.01,2013-04-08 14:08:00,
2013-04-08 10:13:00,57.2,45.2,30.07,East,86,3.0,6.0,64,0.00,,CLR,0.00,VWS V14.01,2013-04-08 14:13:00,
2013-04-08 10:18:00,57.7,46.0,30.07,SE,129,4.0,6.0,65,0.00,,CLR,0.00,VWS V14.01,2013-04-08 14:18:00,
2013-04-08 10:23:00,58.4,46.3,30.07,SSE,150,2.0,6.0,64,0.00,,CLR,0.00,VWS V14.01,2013-04-08 14:23:00,
2013-04-08 10:28:00,59.3,46.7,30.07,SSE,157,4.0,6.0,63,0.00,,CLR,0.00,VWS V14.01,2013-04-08 14:28:00,
2013-04-08 10:33:00,60.0,47.0,30.07,SSE,154,1.0,3.0,62,0.00,,CLR,0.00,VWS V14.01,2013-04-08 14:33:00,
2013-04-08 10:38:00,60.7,46.8,30.07,SSE,154,2.0,3.0,60,0.00,,CLR,0.00,VWS V14.01,2013-04-08 14:38:00,
2013-04-08 10:43:00,61.0,46.6,30.07,SSE,154,0.0,4.0,59,0.00,,CLR,0.00,VWS V14.01,2013-04-08 14:43:00,
2013-04-08 10:48:00,61.6,47.2,30.06,SSE,153,3.0,4.0,59,0.00,,CLR,0.00,VWS V14.01,2013-04-08 14:48:00,
2013-04-08 10:53:00,62.3,47.8,30.07,South,170,2.0,5.0,59,0.00,,CLR,0.00,VWS V14.01,2013-04-08 14:53:00,
2013-04-08 10:58:00,62.9,47.9,30.07,South,171,4.0,6.0,58,0.00,,CLR,0.00,VWS V14.01,2013-04-08 14:58:00,
2013-04-08 11:03:00,63.2,47.7,30.06,South,171,3.0,5.0,57,0.00,,CLR,0.00,VWS V14.01,2013-04-08 15:03:00,
2013-04-08 11:08:00,63.5,48.0,30.06,South,171,3.0,5.0,57,0.00,,CLR,0.00,VWS V14.01,2013-04-08 15:08:00,
2013-04-08 11:13:00,64.1,48.6,30.06,South,171,2.0,5.0,57,0.00,,CLR,0.00,VWS V14.01,2013-04-08 15:13:00,
2013-04-08 11:18:00,64.7,48.7,30.07,South,171,0.0,5.0,56,0.00,,CLR,0.00,VWS V14.01,2013-04-08 15:18:00,
2013-04-08 11:23:00,65.3,48.7,30.06,South,171,0.0,5.0,55,0.00,,CLR,0.00,VWS V14.01,2013-04-08 15:23:00,
2013-04-08 11:28:00,65.7,48.6,30.06,South,171,0.0,5.0,54,0.00,,CLR,0.00,VWS V14.01,2013-04-08 15:28:00,
2013-04-08 11:33:00,66.3,49.2,30.06,South,172,0.0,2.0,54,0.00,,CLR,0.00,VWS V14.01,2013-04-08 15:33:00,
2013-04-08 11:38:00,67.5,49.3,30.06,South,177,4.0,8.0,52,0.00,,CLR,0.00,VWS V14.01,2013-04-08 15:38:00,
2013-04-08 11:43:00,68.1,48.8,30.06,South,177,1.0,8.0,50,0.00,,CLR,0.00,VWS V14.01,2013-04-08 15:43:00,
2013-04-08 11:48:00,68.4,49.1,30.06,South,177,1.0,8.0,50,0.00,,CLR,0.00,VWS V14.01,2013-04-08 15:48:00,
2013-04-08 11:53:00,68.8,49.4,30.05,South,177,5.0,8.0,50,0.00,,CLR,0.00,VWS V14.01,2013-04-08 15:53:00,
2013-04-08 11:58:00,69.4,49.4,30.05,South,177,3.0,8.0,49,0.00,,CLR,0.00,VWS V14.01,2013-04-08 15:58:00,
2013-04-08 12:03:00,70.0,48.9,30.05,SSW,211,6.0,9.0,47,0.00,,CLR,0.00,VWS V14.01,2013-04-08 16:03:00,
2013-04-08 12:08:00,69.9,48.2,30.05,West,268,3.0,9.0,46,0.00,,CLR,0.00,VWS V14.01,2013-04-08 16:08:00,
2013-04-08 12:13:00,69.3,47.7,30.05,WSW,253,1.0,9.0,46,0.00,,CLR,0.00,VWS V14.01,2013-04-08 16:13:00,
2013-04-08 12:18:00,69.0,48.0,30.04,WSW,245,1.0,9.0,47,0.00,,CLR,0.00,VWS V14.01,2013-04-08 16:18:00,
2013-04-08 12:23:00,69.5,48.4,30.04,SW,217,2.0,9.0,47,0.00,,CLR,0.07,VWS V14.01,2013-04-08 16:23:00,
2013-04-08 12:28:00,70.1,47.8,30.03,SW,236,3.0,9.0,45,0.00,,CLR,0.00,VWS V14.01,2013-04-08 16:28:00,
2013-04-08 12:33:00,70.3,46.8,30.03,WNW,297,3.0,4.0,43,0.00,,CLR,0.00,VWS V14.01,2013-04-08 16:33:00,
2013-04-08 12:38:00,70.4,48.7,30.03,WNW,286,2.0,6.0,46,0.00,,CLR,0.00,VWS V14.01,2013-04-08 16:38:00,
2013-04-08 12:43:00,70.8,48.4,30.03,West,274,3.0,6.0,45,0.00,,CLR,0.00,VWS V14.01,2013-04-08 16:43:00,
2013-04-08 12:48:00,71.1,48.7,30.02,West,264,1.0,6.0,45,0.00,,CLR,0.00,VWS V14.01,2013-04-08 16:48:00,
2013-04-08 12:53:00,72.2,48.5,30.02,West,264,3.0,6.0,43,0.00,,CLR,0.00,VWS V14.01,2013-04-08 16:53:00,
2013-04-08 12:58:00,72.9,49.1,30.01,WSW,243,3.0,8.0,43,0.00,,CLR,0.00,VWS V14.01,2013-04-08 16:58:00,
2013-04-08 13:03:00,73.6,47.8,30.01,North,4,3.0,5.0,40,0.00,,CLR,0.00,VWS V14.01,2013-04-08 17:03:00,
2013-04-08 13:08:00,73.3,48.2,30.01,WNW,290,2.0,5.0,41,0.00,,CLR,0.00,VWS V14.01,2013-04-08 17:08:00,
2013-04-08 13:13:00,73.5,48.4,30.01,West,276,2.0,5.0,41,0.00,,CLR,0.00,VWS V14.01,2013-04-08 17:13:00,
2013-04-08 13:18:00,74.0,48.2,30.00,West,276,4.0,5.0,40,0.00,,CLR,0.00,VWS V14.01,2013-04-08 17:18:00,
2013-04-08 13:23:00,73.8,49.3,30.00,NNW,331,2.0,5.0,42,0.00,,CLR,0.00,VWS V14.01,2013-04-08 17:23:00,
2013-04-08 13:28:00,73.9,48.1,30.00,WNW,288,5.0,7.0,40,0.00,,CLR,0.00,VWS V14.01,2013-04-08 17:28:00,
2013-04-08 13:33:00,74.0,46.8,30.00,NNE,20,1.0,5.0,38,0.00,,CLR,0.00,VWS V14.01,2013-04-08 17:33:00,
2013-04-08 13:38:00,74.3,47.1,30.00,WNW,298,3.0,5.0,38,0.00,,CLR,0.00,VWS V14.01,2013-04-08 17:38:00,
2013-04-08 13:43:00,74.6,46.6,30.00,WSW,253,4.0,5.0,37,0.00,,CLR,0.00,VWS V14.01,2013-04-08 17:43:00,
2013-04-08 13:48:00,74.7,46.7,29.99,NNW,346,2.0,5.0,37,0.00,,CLR,0.00,VWS V14.01,2013-04-08 17:48:00,
2013-04-08 13:53:00,74.7,46.0,29.99,West,264,0.0,5.0,36,0.00,,CLR,0.00,VWS V14.01,2013-04-08 17:53:00,
2013-04-08 13:58:00,75.7,48.3,29.99,West,264,0.0,5.0,38,0.00,,CLR,0.00,VWS V14.01,2013-04-08 17:58:00,
2013-04-08 14:03:00,76.2,46.6,29.99,North,349,2.0,6.0,35,0.00,,CLR,0.00,VWS V14.01,2013-04-08 18:03:00,
2013-04-08 14:08:00,76.2,49.5,29.99,SSW,205,0.0,8.0,39,0.00,,CLR,0.00,VWS V14.01,2013-04-08 18:08:00,
2013-04-08 14:13:00,76.6,46.9,29.98,WSW,254,0.0,8.0,35,0.00,,CLR,0.00,VWS V14.01,2013-04-08 18:13:00,
2013-04-08 14:18:00,77.0,45.7,29.98,West,261,2.0,8.0,33,0.00,,CLR,0.00,VWS V14.01,2013-04-08 18:18:00,
2013-04-08 14:23:00,77.3,48.3,29.98,SSW,193,2.0,8.0,36,0.00,,CLR,0.00,VWS V14.01,2013-04-08 18:23:00,
2013-04-08 14:28:00,77.6,47.8,29.97,ENE,59,1.0,8.0,35,0.00,,CLR,0.00,VWS V14.01,2013-04-08 18:28:00,
2013-04-08 14:33:00,77.6,49.3,29.97,NNE,17,0.0,3.0,37,0.00,,CLR,0.00,VWS V14.01,2013-04-08 18:33:00,
2013-04-08 14:38:00,78.4,48.5,29.97,SW,216,0.0,5.0,35,0.00,,CLR,0.00,VWS V14.01,2013-04-08 18:38:00,
2013-04-08 14:44:00,79.3,50.1,29.97,SSW,201,2.0,5.0,36,0.00,,CLR,0.00,VWS V14.01,2013-04-08 18:44:00,
2013-04-08 14:49:00,80.0,48.3,29.96,SSW,197,4.0,6.0,33,0.00,,CLR,0.00,VWS V14.01,2013-04-08 18:49:00,
2013-04-08 14:54:00,80.2,48.5,29.96,SSW,197,1.0,6.0,33,0.00,,CLR,0.00,VWS V14.01,2013-04-08 18:54:00,
2013-04-08 14:59:00,80.1,48.4,29.96,SSW,197,3.0,6.0,33,0.00,,CLR,0.00,VWS V14.01,2013-04-08 18:59:00,
2013-04-08 15:04:00,80.0,48.3,29.96,SSW,197,1.0,5.0,33,0.00,,CLR,0.00,VWS V14.01,2013-04-08 19:04:00,
2013-04-08 15:09:00,80.5,49.6,29.95,SSW,197,0.0,6.0,34,0.00,,CLR,0.00,VWS V14.01,2013-04-08 19:09:00,
2013-04-08 15:14:00,81.4,49.6,29.95,SSW,205,2.0,6.0,33,0.00,,CLR,0.00,VWS V14.01,2013-04-08 19:14:00,
2013-04-08 15:19:00,81.6,49.7,29.95,NNW,328,2.0,6.0,33,0.00,,CLR,0.00,VWS V14.01,2013-04-08 19:19:00,
2013-04-08 15:25:00,81.1,49.3,29.94,NNE,27,1.0,6.0,33,0.00,,CLR,0.00,VWS V14.01,2013-04-08 19:25:00,
2013-04-08 15:30:00,80.6,49.7,29.94,SSE,163,4.0,6.0,34,0.00,,CLR,0.00,VWS V14.01,2013-04-08 19:30:00,
2013-04-08 15:35:00,81.1,49.3,29.94,South,181,2.0,6.0,33,0.00,,CLR,0.00,VWS V14.01,2013-04-08 19:35:00,
2013-04-08 15:40:00,81.7,49.8,29.93,South,181,2.0,6.0,33,0.00,,CLR,0.00,VWS V14.01,2013-04-08 19:40:00,
2013-04-08 15:45:00,81.9,49.2,29.93,South,181,0.0,6.0,32,0.00,,CLR,0.00,VWS V14.01,2013-04-08 19:45:00,
2013-04-08 15:50:00,81.4,49.6,29.93,WNW,299,2.0,7.0,33,0.00,,CLR,0.00,VWS V14.01,2013-04-08 19:50:00,
2013-04-08 15:55:00,81.2,49.4,29.93,WNW,292,3.0,7.0,33,0.00,,CLR,0.00,VWS V14.01,2013-04-08 19:55:00,
2013-04-08 16:00:00,80.4,49.5,29.93,NW,305,6.0,6.0,34,0.00,,CLR,0.00,VWS V14.01,2013-04-08 20:00:00,
2013-04-08 16:05:00,79.0,49.0,29.92,WSW,246,6.0,10.0,35,0.00,,CLR,0.00,VWS V14.01,2013-04-08 20:05:00,
2013-04-08 16:10:00,78.1,49.0,29.92,WNW,293,2.0,10.0,36,0.00,,CLR,0.00,VWS V14.01,2013-04-08 20:10:00,
2013-04-08 16:15:00,77.7,49.4,29.92,SW,235,2.0,10.0,37,0.00,,CLR,0.00,VWS V14.01,2013-04-08 20:15:00,
2013-04-08 16:20:00,77.3,49.0,29.92,SW,215,2.0,10.0,37,0.00,,CLR,0.00,VWS V14.01,2013-04-08 20:20:00,
2013-04-08 16:25:00,76.7,48.5,29.92,West,259,4.0,10.0,37,0.00,,CLR,0.00,VWS V14.01,2013-04-08 20:25:00,
2013-04-08 16:30:00,76.1,48.7,29.92,West,275,3.0,3.0,38,0.00,,CLR,0.00,VWS V14.01,2013-04-08 20:30:00,
2013-04-08 16:35:00,75.7,49.0,29.92,WSW,243,0.0,4.0,39,0.00,,CLR,0.00,VWS V14.01,2013-04-08 20:35:00,
2013-04-08 16:40:00,75.3,48.7,29.92,WSW,254,4.0,7.0,39,0.00,,CLR,0.00,VWS V14.01,2013-04-08 20:40:00,
2013-04-08 16:45:00,75.0,49.1,29.92,WSW,252,1.0,7.0,40,0.00,,CLR,0.00,VWS V14.01,2013-04-08 20:45:00,
2013-04-08 16:50:00,74.9,49.0,29.92,West,271,2.0,7.0,40,0.00,,CLR,0.00,VWS V14.01,2013-04-08 20:50:00,
2013-04-08 16:55:00,74.7,48.8,29.91,WSW,257,1.0,7.0,40,0.00,,CLR,0.00,VWS V14.01,2013-04-08 20:55:00,
2013-04-08 17:00:00,74.7,48.8,29.91,West,262,0.0,0.0,40,0.00,,CLR,0.00,VWS V14.01,2013-04-08 21:00:00,
2013-04-08 17:05:00,74.7,48.8,29.91,West,262,0.0,3.0,40,0.00,,FEW120,0.00,VWS V14.01,2013-04-08 21:05:00,
2013-04-08 17:10:00,74.9,49.0,29.91,West,263,0.0,4.0,40,0.00,,FEW120,0.00,VWS V14.01,2013-04-08 21:10:00,
2013-04-08 17:15:00,75.3,50.0,29.91,West,263,0.0,4.0,41,0.00,,FEW120,0.00,VWS V14.01,2013-04-08 21:15:00,
2013-04-08 17:20:00,76.1,49.4,29.90,West,263,0.0,4.0,39,0.00,,FEW120,0.00,VWS V14.01,2013-04-08 21:20:00,
2013-04-08 17:25:00,76.9,49.4,29.90,WSW,247,2.0,4.0,38,0.00,,FEW120,0.00,VWS V14.01,2013-04-08 21:25:00,
2013-04-08 17:30:00,77.1,50.9,29.90,South,170,3.0,4.0,40,0.00,,FEW120,0.00,VWS V14.01,2013-04-08 21:30:00,
2013-04-08 17:35:00,77.0,50.9,29.90,South,170,0.0,4.0,40,0.00,,FEW120,0.00,VWS V14.01,2013-04-08 21:35:00,
2013-04-08 17:40:00,76.8,50.7,29.91,South,170,2.0,6.0,40,0.00,,FEW120,0.00,VWS V14.01,2013-04-08 21:40:00,
2013-04-08 17:45:00,76.4,51.0,29.90,South,183,6.0,9.0,41,0.00,,FEW120,0.00,VWS V14.01,2013-04-08 21:45:00,
2013-04-08 17:50:00,76.0,51.3,29.90,SSW,202,4.0,9.0,42,0.00,,FEW120,0.00,VWS V14.01,2013-04-08 21:50:00,
2013-04-08 17:55:00,75.7,51.6,29.90,SSW,206,6.0,13.0,43,0.00,,FEW120,0.00,VWS V14.01,2013-04-08 21:55:00,
2013-04-08 18:00:00,75.5,52.1,29.90,SSE,167,2.0,4.0,44,0.00,,FEW120,0.00,VWS V14.01,2013-04-08 22:00:00,
2013-04-08 18:05:00,75.3,51.9,29.90,South,176,3.0,7.0,44,0.00,,OVC100,0.00,VWS V14.01,2013-04-08 22:05:00,
2013-04-08 18:10:00,75.1,51.7,29.90,SW,228,9.0,10.0,44,0.00,,OVC100,0.00,VWS V14.01,2013-04-08 22:10:00,
2013-04-08 18:15:00,74.9,52.2,29.90,SSW,205,5.0,10.0,45,0.00,,OVC100,0.00,VWS V14.01,2013-04-08 22:15:00,
2013-04-08 18:20:00,74.7,52.0,29.90,South,181,2.0,10.0,45,0.00,,OVC100,0.00,VWS V14.01,2013-04-08 22:20:00,
2013-04-08 18:25:00,74.6,51.9,29.90,South,181,2.0,10.0,45,0.00,,OVC100,0.00,VWS V14.01,2013-04-08 22:25:00,
2013-04-08 18:30:00,74.3,51.6,29.90,SSW,203,4.0,6.0,45,0.00,,OVC100,0.00,VWS V14.01,2013-04-08 22:30:00,
2013-04-08 18:35:00,74.1,52.0,29.90,SSW,195,5.0,9.0,46,0.00,,OVC100,0.00,VWS V14.01,2013-04-08 22:35:00,
2013-04-08 18:40:00,73.9,51.8,29.90,South,185,5.0,10.0,46,0.00,,OVC100,0.00,VWS V14.01,2013-04-08 22:40:00,
2013-04-08 18:45:00,73.8,52.3,29.91,SW,225,3.0,10.0,47,0.00,,OVC100,0.00,VWS V14.01,2013-04-08 22:45:00,
2013-04-08 18:50:00,73.6,52.2,29.90,South,189,8.0,12.0,47,0.00,,OVC100,0.00,VWS V14.01,2013-04-08 22:50:00,
2013-04-08 18:55:00,73.5,52.1,29.90,SSW,192,3.0,12.0,47,0.00,,OVC100,0.00,VWS V14.01,2013-04-08 22:55:00,
2013-04-08 19:00:00,73.4,52.0,29.90,South,174,5.0,7.0,47,0.00,,OVC100,0.00,VWS V14.01,2013-04-08 23:00:00,
2013-04-08 19:05:00,73.2,52.4,29.91,South,185,9.0,13.0,48,0.00,,OVC095,0.00,VWS V14.01,2013-04-08 23:05:00,
2013-04-08 19:10:00,73.1,52.8,29.91,SSW,201,5.0,13.0,49,0.00,,OVC095,0.00,VWS V14.01,2013-04-08 23:10:00,
2013-04-08 19:15:00,72.9,52.6,29.91,South,185,9.0,13.0,49,0.00,,OVC095,0.00,VWS V14.01,2013-04-08 23:15:00,
2013-04-08 19:20:00,72.6,52.9,29.90,South,181,4.0,13.0,50,0.00,,OVC095,0.00,VWS V14.01,2013-04-08 23:20:00,
2013-04-08 19:25:00,72.4,52.7,29.91,South,175,2.0,13.0,50,0.00,,OVC095,0.00,VWS V14.01,2013-04-08 23:25:00,
2013-04-08 19:30:00,72.2,52.5,29.91,SSW,202,2.0,5.0,50,0.00,,OVC095,0.00,VWS V14.01,2013-04-08 23:30:00,
2013-04-08 19:35:00,72.1,53.0,29.91,South,176,2.0,9.0,51,0.00,,OVC095,0.00,VWS V14.01,2013-04-08 23:35:00,
2013-04-08 19:40:00,71.9,52.8,29.91,SSE,166,6.0,9.0,51,0.00,,OVC095,0.00,VWS V14.01,2013-04-08 23:40:00,
2013-04-08 19:45:00,71.8,52.7,29.90,South,182,4.0,9.0,51,0.00,,OVC095,0.00,VWS V14.01,2013-04-08 23:45:00,
2013-04-08 19:50:00,71.6,52.5,29.90,South,184,9.0,11.0,51,0.00,,OVC095,0.00,VWS V14.01,2013-04-08 23:50:00,
2013-04-08 19:55:00,71.5,53.0,29.90,South,176,4.0,11.0,52,0.00,,OVC095,0.00,VWS V14.01,2013-04-08 23:55:00,
2013-04-08 20:00:00,71.4,52.9,29.90,South,174,4.0,6.0,52,0.00,,OVC095,0.00,VWS V14.01,2013-04-09 00:00:00,
2013-04-08 20:05:00,71.2,52.7,29.90,South,169,5.0,8.0,52,0.00,,OVC120,0.00,VWS V14.01,2013-04-09 00:05:00,
2013-04-08 20:10:00,71.1,52.6,29.90,SSW,211,1.0,9.0,52,0.00,,OVC120,0.00,VWS V14.01,2013-04-09 00:10:00,
2013-04-08 20:15:00,71.0,52.5,29.90,SSW,192,0.0,9.0,52,0.00,,OVC120,0.00,VWS V14.01,2013-04-09 00:15:00,
2013-04-08 20:20:00,70.8,52.3,29.90,South,176,2.0,9.0,52,0.00,,OVC120,0.00,VWS V14.01,2013-04-09 00:20:00,
2013-04-08 20:25:00,70.7,52.2,29.91,SSW,203,3.0,9.0,52,0.00,,OVC120,0.00,VWS V14.01,2013-04-09 00:25:00,
2013-04-08 20:30:00,70.6,52.1,29.90,SSW,202,4.0,6.0,52,0.00,,OVC120,0.00,VWS V14.01,2013-04-09 00:30:00,
2013-04-08 20:35:00,70.6,52.1,29.90,SSW,196,7.0,8.0,52,0.00,,OVC120,0.00,VWS V14.01,2013-04-09 00:35:00,
2013-04-08 20:40:00,70.6,52.1,29.91,South,169,9.0,11.0,52,0.00,,OVC120,0.00,VWS V14.01,2013-04-09 00:40:00,
2013-04-08 20:45:00,70.6,52.1,29.91,SSE,156,3.0,11.0,52,0.00,,OVC120,0.00,VWS V14.01,2013-04-09 00:45:00,
2013-04-08 20:50:00,70.6,52.1,29.91,South,180,6.0,11.0,52,0.00,,OVC120,0.00,VWS V14.01,2013-04-09 00:50:00,
2013-04-08 20:55:00,70.5,52.0,29.91,South,179,7.0,12.0,52,0.00,,OVC120,0.00,VWS V14.01,2013-04-09 00:55:00,
2013-04-08 21:00:00,70.6,51.6,29.91,SSW,193,7.0,10.0,51,0.00,,OVC120,0.00,VWS V14.01,2013-04-09 01:00:00,
2013-04-08 21:05:00,70.6,51.6,29.91,SSW,198,5.0,14.0,51,0.00,,OVC090,0.00,VWS V14.01,2013-04-09 01:05:00,
2013-04-08 21:10:00,70.6,51.6,29.91,SSE,162,3.0,16.0,51,0.00,,OVC090,0.00,VWS V14.01,2013-04-09 01:10:00,
2013-04-08 21:15:00,70.6,51.1,29.91,SSW,206,3.0,16.0,50,0.00,,OVC090,0.00,VWS V14.01,2013-04-09 01:15:00,
2013-04-08 21:20:00,70.6,51.1,29.91,SW,218,3.0,16.0,50,0.00,,OVC090,0.00,VWS V14.01,2013-04-09 01:20:00,
2013-04-08 21:25:00,70.6,51.1,29.91,SSW,200,2.0,16.0,50,0.00,,OVC090,0.00,VWS V14.01,2013-04-09 01:25:00,
2013-04-08 21:30:00,70.5,50.4,29.91,SSW,205,3.0,4.0,49,0.00,,OVC090,0.00,VWS V14.01,2013-04-09 01:30:00,
2013-04-08 21:35:00,70.5,50.4,29.90,South,177,1.0,12.0,49,0.00,,OVC090,0.00,VWS V14.01,2013-04-09 01:35:00,
2013-04-08 21:40:00,70.4,50.3,29.90,South,177,4.0,12.0,49,0.00,,OVC090,0.00,VWS V14.01,2013-04-09 01:40:00,
2013-04-08 21:45:00,70.4,50.3,29.91,SSW,206,3.0,12.0,49,0.00,,OVC090,0.00,VWS V14.01,2013-04-09 01:45:00,
2013-04-08 21:50:00,70.3,50.3,29.91,SSW,203,2.0,12.0,49,0.00,,OVC090,0.00,VWS V14.01,2013-04-09 01:50:00,
2013-04-08 21:55:00,70.2,49.6,29.90,South,179,2.0,12.0,48,0.00,,OVC090,0.00,VWS V14.01,2013-04-09 01:55:00,
2013-04-08 22:00:00,70.2,49.6,29.91,SSW,193,3.0,9.0,48,0.00,,OVC090,0.00,VWS V14.01,2013-04-09 02:00:00,
2013-04-08 22:05:00,70.2,49.0,29.90,SSW,203,4.0,10.0,47,0.00,,OVC090,0.00,VWS V14.01,2013-04-09 02:05:00,
2013-04-08 22:10:00,70.2,49.0,29.90,West,264,2.0,13.0,47,0.00,,OVC090,0.00,VWS V14.01,2013-04-09 02:10:00,
2013-04-08 22:15:00,70.2,49.0,29.90,SSW,212,12.0,16.0,47,0.00,,OVC090,0.00,VWS V14.01,2013-04-09 02:15:00,
2013-04-08 22:20:00,70.2,49.0,29.90,WNW,282,6.0,16.0,47,0.00,,OVC090,0.00,VWS V14.01,2013-04-09 02:20:00,
2013-04-08 22:25:00,70.2,49.0,29.90,South,183,4.0,16.0,47,0.00,,OVC090,0.00,VWS V14.01,2013-04-09 02:25:00,
2013-04-08 22:30:00,70.2,49.0,29.90,WSW,251,3.0,7.0,47,0.00,,OVC090,0.00,VWS V14.01,2013-04-09 02:30:00,
2013-04-08 22:35:00,70.2,49.0,29.90,SSW,209,3.0,10.0,47,0.00,,OVC090,0.00,VWS V14.01,2013-04-09 02:35:00,
2013-04-08 22:40:00,70.0,49.4,29.90,South,177,4.0,10.0,48,0.00,,OVC090,0.00,VWS V14.01,2013-04-09 02:40:00,
2013-04-08 22:45:00,69.9,49.3,29.90,SW,233,6.0,10.0,48,0.00,,OVC090,0.00,VWS V14.01,2013-04-09 02:45:00,
2013-04-08 22:50:00,69.9,49.9,29.90,SW,222,11.0,11.0,49,0.00,,OVC090,0.00,VWS V14.01,2013-04-09 02:50:00,
2013-04-08 22:55:00,69.9,49.9,29.90,WSW,257,5.0,20.0,49,0.00,,OVC090,0.00,VWS V14.01,2013-04-09 02:55:00,
2013-04-08 23:00:00,69.9,49.9,29.90,SSW,201,3.0,8.0,49,0.00,,OVC090,0.00,VWS V14.01,2013-04-09 03:00:00,
2013-04-08 23:05:00,69.9,50.4,29.89,SW,217,4.0,19.0,50,0.00,,OVC090,0.00,VWS V14.01,2013-04-09 03:05:00,
2013-04-08 23:10:00,69.8,50.3,29.89,West,280,2.0,19.0,50,0.00,,OVC090,0.00,VWS V14.01,2013-04-09 03:10:00,
2013-04-08 23:15:00,69.7,50.8,29.90,NW,326,4.0,19.0,51,0.00,,OVC090,0.00,VWS V14.01,2013-04-09 03:15:00,
2013-04-08 23:20:00,69.6,50.7,29.90,SSW,210,6.0,19.0,51,0.00,,OVC090,0.00,VWS V14.01,2013-04-09 03:20:00,
2013-04-08 23:25:00,69.4,51.0,29.90,WSW,240,6.0,19.0,52,0.00,,OVC090,0.00,VWS V14.01,2013-04-09 03:25:00,
2013-04-08 23:30:00,69.4,51.0,29.90,SSW,206,2.0,7.0,52,0.00,,OVC090,0.00,VWS V14.01,2013-04-09 03:30:00,
2013-04-08 23:35:00,69.3,51.5,29.89,SSW,197,5.0,13.0,53,0.00,,OVC090,0.00,VWS V14.01,2013-04-09 03:35:00,
2013-04-08 23:40:00,69.2,51.9,29.89,SSW,213,3.0,13.0,54,0.00,,OVC090,0.00,VWS V14.01,2013-04-09 03:40:00,
2013-04-08 23:45:00,69.0,51.7,29.89,SW,226,4.0,13.0,54,0.00,,OVC090,0.00,VWS V14.01,2013-04-09 03:45:00,
2013-04-08 23:50:00,68.9,51.6,29.89,SW,232,6.0,13.0,54,0.00,,OVC090,0.00,VWS V14.01,2013-04-09 03:50:00,
2013-04-08 23:55:00,68.8,52.0,29.89,SSW,206,4.0,13.0,55,0.00,,OVC090,0.00,VWS V14.01,2013-04-09 03:55:00,